Regional Weather Roundup
Issued by NWS

Home | Current Version | Previous Version | Text Only | Print | Product List | Glossary On
Versions: 1 2 3 4 5 6 7 8 9 10 11 12 13 14 15 16 17 18 19 20 21 22 23 24 25 26 27 28 29 30 31 32 33 34 35 36 37 38 39 40 41 42 43 44 45 46 47 48 49 50
000
ASUS43 KMPX 180310
RWRMN
WEATHER ROUNDUP FOR MINNESOTA
NATIONAL WEATHER SERVICE TWIN CITIES/CHANHASSEN MN
1000 PM CDT THU AUG 17 2017


NOTE: "FAIR" INDICATES FEW OR NO CLOUDS BELOW 12,000 FEET WITH NO
SIGNIFICANT WEATHER AND/OR OBSTRUCTIONS TO VISIBILITY. N/A MEANS
CURRENT SKY AND/OR WEATHER CONDITIONS ARE NOT AVAILABLE.

MNZ060>063-068>070-180400-
   Twin Cities Metro

CITY           SKY/WX    TMP DP  RH WIND       PRES   REMARKS
TWIN CITIES    PTCLDY    69  59  70 NW10      29.84R
ST PAUL        CLOUDY    69  60  73 NW12      29.83R
CRYSTAL        CLEAR     66  57  72 NW7       29.83R
BLAINE         PTCLDY    70  63  78 NW9       29.83R
LAKEVILLE      MOCLDY    64  61  88 W3        29.84S
EDEN PRAIRIE   CLEAR     66  61  84 NW3       29.84R
SOUTH ST PAUL  CLOUDY    70  59  68 NW10G18   29.83R
LAKE ELMO      CLOUDY    68  61  77 NW7       29.84R
$$
MNZ001>005-007-008-013>017-022>024-027-028-180400-
   Northwest Minnesota

CITY           SKY/WX    TMP DP  RH WIND       PRES   REMARKS
BEMIDJI        CLEAR     58  57  96 CALM      29.85S
HALLOCK        CLEAR     64  55  72 CALM      29.83R
ROSEAU         CLEAR     63  57  82 CALM      29.83S
WARROAD        CLEAR     64  61  88 NW3       29.83S
THIEF RVR FALL CLEAR     63  57  82 CALM      29.86R HAZE
CROOKSTON      CLEAR     66  57  72 CALM      29.85R
FOSSTON        CLEAR     57  54  88 CALM      29.86S
DETROIT LAKES  CLEAR     64  59  82 CALM      29.88S
MOORHEAD       CLEAR     66  61  82 CALM      29.86R
PARK RAPIDS    CLEAR     61  57  87 W5        29.85S
MAHNOMEN       FAIR      64  58  83 CALM      29.86R
$$
MNZ006-009>011-018-025>026-180400-
   North Central Minnesota

CITY           SKY/WX    TMP DP  RH WIND       PRES   REMARKS
BAUDETTE       CLEAR     59  58  96 CALM      29.82R
FLAG ISLAND    CLEAR     68  57  68 CALM      29.81R HAZE
INTL FALLS     CLEAR     55  54  96 CALM      29.82S
WASKISH        CLEAR     57  55  94 CALM      29.83S
BIG FORK       FOG       54  52  94 CALM      29.83S VSB 3/4
LONGVILLE      CLEAR     55  55 100 CALM      29.84S FOG
GRAND RAPIDS   CLEAR     56  56 100 CALM      29.84F FOG
CRANE LAKE     PTCLDY    59  57  94 N3        29.83S
ORR            MOCLDY    59  55  88 NW3       29.80S
COOK           CLEAR     57  57 100 CALM      29.82S
WALKER         FAIR      58  57  98 CALM      29.85R
$$
MNZ012-019>021-037-180400-
   Northeast Minnesota

CITY           SKY/WX    TMP DP  RH WIND       PRES   REMARKS
DULUTH         MOCLDY    60  60 100 NW12      29.79R
ELY            CLOUDY    61  57  88 NW9       29.79S
HIBBING        CLEAR     57  56  96 NW7       29.81S
EVELETH        PTCLDY    60  55  83 NW6       29.81F
DULUTH HARBOR  MOCLDY    66  61  82 NW9G16    29.78S
TWO HARBORS    CLOUDY    64  61  88 CALM      29.74R
SILVER BAY     PTCLDY    63  61  94 NW3       29.72S
GRAND MARAIS     N/A     64  61  90 VRB3      29.69R
G MARAIS ARPRT CLOUDY    57  54  88 NW12G17   29.73R FOG
$$
MNZ029>031-032-039>041-046>048-054>057-064-180400-
   West Central Minnesota

CITY           SKY/WX    TMP DP  RH WIND       PRES   REMARKS
FERGUS FALLS   CLEAR     64  61  88 CALM      29.86R
WHEATON        CLEAR     63  59  88 CALM      29.89R
MORRIS         CLEAR     64  63  94 CALM      29.87R
ALEXANDRIA     CLEAR     63  59  87 NW5       29.89R
ELBOW LAKE     FAIR      64  62  90 CALM      29.88R
WADENA         CLEAR     59  59 100 CALM      29.86R
GLENWOOD       CLEAR     63  59  88 W3        29.88R
APPLETON       CLEAR     63  59  88 W3        29.88R
BENSON         CLEAR     63  61  94 NW6       29.90R
ORTONVILLE     CLEAR     64  61  88 MISG      29.88S
MADISON        CLEAR     66  66 100 CALM      29.89R
WILLMAR        FAIR      66  64  94 CALM      29.89R
$$
MNZ033>034-036-042>043-049>051-058-059-180400-
   Central Minnesota

CITY           SKY/WX    TMP DP  RH WIND       PRES   REMARKS
ST CLOUD       CLEAR     60  59  96 CALM      29.85R
SAUK CENTRE    FAIR      60  59  96 W3        29.87R
PAYNESVILLE    CLEAR     59  58  97 W3        29.88R
AITKIN         CLEAR     54  52  94 CALM      29.82S FOG
PINE RIVER     CLEAR     55  55 100 CALM      29.88S FOG
BRAINERD       CLEAR     59  56  89 CALM      29.84S
STAPLES        CLEAR     59  57  94 CALM      29.86R
LONG PRAIRIE   FAIR      59  57  94 CALM      29.87S
LITTLE FALLS   CLEAR     59  55  88 CALM      29.86R
LITCHFIELD     CLEAR     64  63  94 CALM      29.87R
BUFFALO        CLEAR     63  58  83 CALM      29.86R
MAPLE LAKE     CLEAR     63  60  91 CALM      29.86R
HUTCHINSON     CLEAR     62  61  97 CALM      29.88R
$$
MNZ037-044-045-052-053-180400-
   East Central Minnesota

CITY           SKY/WX    TMP DP  RH WIND       PRES   REMARKS
PRINCETON      CLEAR     61  57  88 CALM      29.84S
MORA           PTCLDY    61  55  82 NW5       29.84S
RUSH CITY      HVY RAIN  64  59  83 NW3       29.82S
MOOSE LAKE     PTCLDY    61  57  88 NW3       29.80S
HINCKLEY       CLOUDY    64  61  88 NW3       29.81S
CLOQUET        CLOUDY    63  57  82 NW8       29.81S
MCGREGOR       CLEAR     59  55  88 CALM      29.83S
$$
MNZ071>073-080-081-089-090-097-098-180400-
   Southwest Minnesota

CITY           SKY/WX    TMP DP  RH WIND       PRES   REMARKS
MONTEVIDEO     CLEAR     64  61  88 NW3       29.89R
GRANITE FALLS  CLEAR     63  62  96 W3        29.90R
CANBY          CLEAR     63  60  91 CALM      29.90S
MARSHALL       CLEAR     61  59  93 W5        29.90R
REDWOOD FALLS  CLEAR     65  61  87 W6        29.87R
OLIVIA         CLEAR     63  59  88 NW3       29.88R
PIPESTONE      PTCLDY    66  61  82 CALM      29.92R
WINDOM         CLEAR     61  57  88 CALM      29.90S
WORTHINGTON    CLEAR     63  61  93 W3        29.92R
JACKSON        CLEAR     61  57  88 CALM      29.91S
TRACY          CLEAR     64  61  89 CALM      29.90R
SLAYTON        CLEAR     63  55  74 CALM      29.92R
$$
MNZ065>067-074>077-082>085-091>093-180400-
   South Central Minnesota

CITY           SKY/WX    TMP DP  RH WIND       PRES   REMARKS
MANKATO        CLEAR     66  61  84 NW6       29.87R
NEW ULM        CLEAR     61  59  94 W6        29.87S
ST JAMES       CLEAR     63  59  88 W5        29.89R
FAIRMONT       CLEAR     64  61  90 NW3       29.89R
GLENCOE        CLEAR     64  64  99 CALM      29.86R
FARIBAULT      PTCLDY    64  63  94 CALM      29.86S
OWATONNA       MOCLDY    64  63  94 CALM      29.86S
WASECA         PTCLDY    63  59  88 CALM      29.88R
ALBERT LEA     CLEAR     68  66  94 W3        29.87R
$$
MNZ078>079-086>088-094>096-180400-
   Southeast Minnesota

CITY           SKY/WX    TMP DP  RH WIND       PRES   REMARKS
ROCHESTER      CLOUDY    66  62  87 NW10      29.85R
RED WING       CLOUDY    70  61  73 NW7       29.81R
STANTON        CLOUDY    68  62  80 W5        29.83S
DODGE CENTER   MOCLDY    64  61  88 NW12      29.86R
WINONA         CLOUDY    70  61  73 NW12      29.79S
AUSTIN         CLOUDY    66  61  82 NW7       29.86R
PRESTON        MOCLDY    64  61  88 NW8       29.84R
$$
ABBREVIATIONS USED IN REMARKS
   TC - TEMPERATURES IN CELSIUS
  WCI - WIND CHILL INDEX
   HX - HEAT INDEX
  VSB - VISIBILITY
$$




USA.gov is the U.S. government's official web portal to all federal, state and local government web resources and services.